Location: Poughquag
(41.6090°N, 73.6820°W)
Time: 12:09:23
(UTC-04:00)

Transit 2A - Pass Details

Date: 04 June 2020
Orbit: 592 x 967 km, 66.7° (Epoch: 06 July)

Event Time Altitude Azimuth Distance (km) Brightness Sun altitude
Rises 14:06:47 0° 241° (WSW) 3,064 9.5 65.5°
Reaches altitude 10° 14:09:18 10° 253° (WSW) 2,209 8.9 65.2°
Maximum altitude 14:13:40 29° 313° (NW) 1,400 7.8 64.6°
Drops below altitude 10° 14:18:29 10° 13° (NNE) 2,442 8.5 63.9°
Sets 14:21:25 0° 24° (NNE) 3,446 9.1 63.5°
